Location: Unspecified
(0.0000°N, 0.0000°E)
Time: 00:54:45
(UTC+01:00)

JASON 3 - Pass Details

Date: 10 October 2020
Orbit: 1332 x 1343 km, 66.0° (Epoch: 27 October)

Event Time Altitude Azimuth Distance (km) Brightness Sun altitude
Rises 20:43:15 0° 343° (NNW) 4,343 ? -14.0°
Reaches altitude 10° 20:46:05 10° 344° (NNW) 3,371 ? -14.7°
Maximum altitude 20:54:15 79° 70° (ENE) 1,362 ? -16.7°
Drops below altitude 10° 21:02:26 10° 156° (SSE) 3,373 ? -18.8°
Sets 21:05:16 0° 157° (SSE) 4,346 ? -19.5°
